Theta_e
312 313 314 314 314 314 314 314 314 315 315 315 314 314 314 314 314 313 313 312 312 312 312 312 312 312 312 311 310 310 310 309 310 310 308 307 306 305 306 307 305 303 302 301 300 301 300 299 299 299 298 298 298 297 297 299 300 300 300 299 296 295 295 294 293 292 293 293 293 293 292 292 292 292 292 292 291 291 291 291 291 291 291 291 291
311 312 312 313 313 313 313 313 313 313 314 314 314 313 313 313 313 313 313 312 312 312 312 311 311 311 311 310 310 310 310 310 309 309 309 307 305 304 306 307 304 302 302 301 301 301 300 300 299 298 298 298 298 298 298 298 299 299 299 298 296 295 295 294 293 292 292 292 293 293 293 292 292 292 291 291 291 291 291 291 290 290 290 290 290
311 311 312 312 312 312 313 312 312 312 313 313 313 313 313 312 312 312 312 312 312 312 313 312 311 310 310 310 310 310 310 309 309 308 308 307 306 304 306 307 305 303 302 301 301 300 300 300 299 298 298 298 298 298 298 298 298 299 298 297 296 295 294 294 293 292 292 292 292 293 293 292 292 292 291 290 290 290 290 290 290 290 290 290 290
310 311 311 311 311 312 312 312 312 311 312 312 312 312 312 312 312 311 311 311 311 311 312 312 311 310 309 309 309 309 309 309 308 308 308 307 306 305 306 307 305 304 303 302 301 300 300 300 299 298 298 297 297 297 298 298 299 299 298 296 296 295 294 294 293 293 292 291 291 292 292 292 292 291 291 290 290 290 290 290 289 289 289 289 289
310 311 311 311 311 311 311 311 311 311 311 311 311 312 312 311 310 310 310 310 310 310 310 310 311 310 309 309 309 309 309 308 308 308 308 307 307 307 308 307 305 304 304 303 302 301 301 300 299 298 298 297 297 298 298 298 299 298 297 296 295 295 294 293 293 293 292 292 291 292 292 292 292 291 290 290 290 290 290 290 289 289 289 289 289
310 310 311 310 310 310 310 311 311 311 311 310 310 311 311 311 310 310 310 309 309 309 309 309 309 309 309 309 308 308 308 308 308 307 307 306 306 307 309 307 305 303 303 303 303 302 301 300 299 298 298 298 298 298 298 298 298 297 296 295 295 294 294 293 293 293 292 292 292 292 292 292 292 291 290 290 289 289 289 289 289 289 289 288 288
310 310 310 310 310 310 309 310 310 310 310 310 310 310 310 310 309 309 309 309 309 308 308 308 308 309 309 309 308 308 307 307 307 306 306 305 305 306 307 306 304 302 302 302 302 302 302 301 299 298 298 298 299 299 299 298 297 296 295 295 294 294 293 293 292 292 292 292 292 292 292 292 291 290 290 289 289 289 289 289 289 289 289 288 287
308 309 310 310 310 310 309 309 309 309 310 309 309 309 309 309 308 307 307 307 308 308 308 307 308 308 308 308 307 307 306 306 306 305 305 305 306 306 307 305 302 301 301 302 302 302 301 301 300 299 299 299 300 300 299 298 296 295 295 294 294 293 293 293 292 292 292 292 291 292 292 291 291 290 290 289 289 289 289 289 288 289 289 288 287
305 308 309 309 309 310 309 309 309 308 309 308 308 308 308 308 307 306 306 306 306 307 307 307 306 305 306 306 306 306 305 305 305 305 305 305 305 306 306 304 302 301 300 300 301 301 301 300 300 299 299 300 300 301 300 297 296 295 294 294 293 293 293 293 292 292 292 291 291 291 291 291 290 290 289 289 288 289 289 288 288 288 288 288 287
303 305 308 308 309 309 309 309 308 308 308 308 308 307 307 307 306 305 305 304 304 304 305 305 305 304 304 304 304 304 304 305 305 305 306 306 305 305 304 302 301 301 300 299 300 300 300 300 300 299 300 300 300 300 298 296 295 294 293 293 293 292 293 292 292 292 292 291 291 291 290 290 290 289 289 288 288 288 288 288 288 288 288 288 287
301 303 306 308 309 309 309 309 308 307 307 306 306 306 305 305 304 304 303 303 303 303 303 303 303 304 304 303 303 303 303 304 304 305 305 306 306 304 302 301 300 300 300 300 299 299 299 299 299 299 299 299 299 299 297 295 294 293 292 292 292 292 292 292 292 292 291 290 290 291 290 289 289 289 288 288 288 288 288 288 288 288 288 288 287
300 301 304 307 308 308 308 308 308 307 306 305 305 305 304 303 302 302 302 302 302 302 302 302 302 302 302 302 302 302 302 303 303 304 304 305 305 304 302 300 300 300 300 300 299 299 298 298 299 299 299 298 298 297 296 295 293 292 292 292 292 292 292 292 292 292 291 290 290 290 290 289 289 288 287 287 287 287 288 288 288 288 288 288 287
299 300 302 305 306 307 307 307 307 306 305 305 304 303 302 301 301 301 301 301 301 301 301 301 301 300 300 300 300 300 301 301 302 303 303 303 303 303 302 301 300 300 300 299 299 299 298 298 297 297 298 298 297 296 295 295 293 292 292 291 291 292 291 291 291 292 291 291 291 291 290 289 289 288 287 287 287 287 288 288 288 288 288 287 287
298 299 301 303 305 306 306 306 306 305 305 304 303 301 301 300 300 300 300 300 300 300 299 299 299 299 299 299 299 299 300 301 301 301 302 302 302 302 302 302 300 299 299 299 299 299 298 297 297 297 297 297 296 296 295 294 293 292 292 292 291 291 291 291 291 291 291 291 291 291 290 289 289 288 286 286 287 288 287 287 287 287 287 286 286
298 299 300 301 303 304 305 305 304 304 303 303 302 300 300 299 298 299 299 299 299 299 299 298 298 298 298 299 298 298 299 299 300 300 301 301 301 301 301 301 299 299 299 298 299 298 298 298 297 297 296 296 296 296 295 294 293 292 292 291 291 291 291 291 290 290 290 290 290 290 290 289 288 287 287 286 287 287 286 286 286 286 286 287 286
297 298 299 300 302 302 303 303 303 303 302 301 300 299 299 298 298 298 298 298 298 298 298 298 298 297 297 298 298 297 298 299 299 300 300 301 300 299 299 298 298 298 297 298 298 298 297 297 296 296 296 296 296 295 295 293 292 291 291 291 291 291 291 290 290 290 290 290 290 289 289 288 287 287 287 287 286 286 286 286 286 287 287 287 286
297 298 299 300 301 302 302 302 302 302 301 300 299 299 298 298 298 298 297 297 297 297 297 297 297 297 297 297 297 297 297 298 299 299 299 299 298 297 297 297 297 296 296 296 296 296 296 296 296 295 295 295 295 295 294 293 291 291 291 291 291 291 290 290 290 289 289 289 289 289 288 288 288 288 288 287 286 286 287 287 287 287 286 286 285
297 298 298 299 300 301 301 301 301 301 300 299 298 298 298 298 298 298 297 297 297 297 297 297 297 297 297 297 297 297 297 297 298 298 298 298 297 297 296 296 295 295 295 295 295 295 296 295 295 295 294 294 294 294 293 292 291 291 291 290 290 290 290 289 289 289 289 288 288 289 288 288 288 288 287 287 287 287 287 287 287 286 286 286 285
297 298 298 299 299 300 301 300 300 300 299 299 299 298 298 298 298 298 297 297 297 296 296 296 296 296 296 297 297 297 297 297 297 297 297 297 297 297 296 295 294 294 294 294 294 294 295 294 294 294 294 293 293 293 292 291 291 291 290 290 289 289 289 289 289 289 289 288 289 289 288 288 288 288 287 287 288 288 287 287 286 286 286 285 285
297 297 298 299 299 299 300 300 299 299 299 298 298 298 298 298 298 297 297 297 296 296 296 296 295 295 295 296 297 297 297 296 297 297 297 297 297 296 296 295 294 293 293 293 292 292 292 293 293 293 292 292 292 292 291 291 291 290 290 289 289 289 289 289 288 289 289 289 289 288 288 287 287 287 287 288 288 288 287 286 286 285 285 285 285
297 297 298 299 299 299 299 299 299 299 299 298 298 298 298 297 297 296 296 296 296 295 295 295 295 294 295 295 295 296 296 296 296 296 297 297 296 296 295 294 294 293 293 292 292 291 291 291 292 292 291 290 290 291 291 291 291 290 289 289 289 289 290 289 288 289 289 288 288 287 287 287 287 287 287 287 287 287 286 285 285 285 285 285 285
297 297 298 299 299 299 298 299 299 299 298 298 297 297 297 297 296 296 296 295 295 295 294 294 294 294 294 294 294 294 295 296 296 295 296 296 296 296 295 295 295 294 292 291 291 291 291 291 291 290 290 290 290 290 291 291 290 290 289 289 289 289 290 289 289 289 288 288 287 287 287 286 286 286 286 286 286 286 285 285 284 284 284 284 284
297 297 298 298 299 298 298 298 298 298 298 297 297 296 296 296 296 295 295 295 295 294 294 293 293 293 292 292 293 293 293 294 294 295 295 295 295 296 295 295 295 294 293 292 291 291 291 290 290 290 290 290 290 290 290 290 290 289 289 289 289 289 289 289 289 288 288 287 287 286 286 285 285 286 286 286 285 285 285 285 284 283 283 284 284
297 297 297 298 298 298 298 297 297 297 297 297 296 296 296 295 295 295 295 295 294 294 293 293 293 292 291 291 291 291 291 292 293 294 294 295 295 295 295 295 294 294 293 293 292 291 291 290 290 290 290 290 290 290 290 290 290 290 289 289 289 289 289 289 288 288 287 287 286 286 285 285 286 286 286 286 285 285 285 284 284 283 283 283 284
297 296 297 297 297 298 297 296 296 297 297 296 296 296 295 295 294 294 294 294 294 293 293 292 292 292 291 290 290 290 290 291 292 293 294 294 294 294 294 294 293 293 292 292 291 291 291 291 291 290 290 290 290 290 290 290 290 289 289 289 289 289 289 288 288 287 287 286 286 285 285 285 286 286 286 286 285 285 284 284 283 283 283 283 283
296 296 296 296 297 297 296 296 296 296 296 296 296 296 295 294 294 294 293 293 294 293 292 292 292 291 291 290 290 289 289 290 291 292 293 294 294 293 293 292 292 292 291 291 291 290 290 290 290 290 290 290 290 290 290 290 290 289 289 289 289 289 289 288 287 287 286 286 286 285 285 286 286 286 286 286 285 285 284 284 283 282 282 281 281
296 296 296 296 297 296 296 295 295 295 295 295 296 296 295 294 294 294 293 293 293 293 292 292 291 291 291 290 289 289 289 289 290 291 292 293 293 293 292 291 291 291 290 290 290 290 290 290 290 290 290 290 290 290 290 290 290 290 289 289 289 289 289 288 288 287 286 286 286 285 285 286 286 286 286 285 284 284 284 283 283 282 281 280 279
295 295 296 296 296 296 296 295 295 295 295 295 295 295 295 294 294 294 294 294 293 293 292 292 291 291 291 290 289 289 289 289 290 290 291 292 292 292 291 291 291 290 290 290 290 290 290 290 290 290 290 290 290 290 290 290 290 290 289 289 289 289 289 288 287 287 286 286 286 285 285 286 286 286 285 284 284 283 283 282 281 281 280 279 278
295 295 296 296 296 295 295 295 295 295 295 294 295 295 295 294 294 294 294 294 294 294 293 292 292 292 291 290 290 289 289 289 290 290 291 292 293 292 291 291 291 290 290 290 290 290 290 290 290 290 290 290 290 290 290 290 290 290 289 289 289 289 288 287 287 287 287 286 286 285 285 285 285 285 284 283 283 282 282 281 280 279 279 278 277
295 295 295 295 295 295 295 295 295 295 294 294 294 295 295 294 294 294 294 294 294 294 294 293 293 292 292 291 291 291 291 290 290 290 291 292 293 292 292 291 291 290 290 290 290 290 289 289 289 290 290 290 289 289 289 289 289 289 289 288 288 288 288 287 287 286 286 286 286 285 285 285 284 283 283 283 282 281 280 280 279 278 278 277 276
295 295 295 295 295 295 295 295 295 294 294 294 294 294 294 293 294 294 294 293 293 293 293 293 293 293 292 292 291 291 291 291 290 291 291 292 292 292 292 291 291 290 290 290 290 289 289 289 289 289 289 289 289 288 288 288 288 288 287 287 287 287 287 287 287 286 286 285 285 285 285 284 284 283 282 282 281 280 279 278 277 277 276 276 275
294 295 295 295 295 295 295 295 294 294 294 294 294 294 293 293 293 293 293 293 293 293 293 293 292 292 292 292 292 291 291 291 290 290 291 291 292 292 292 291 291 290 290 290 290 289 288 288 288 288 289 289 288 288 288 287 287 287 287 286 286 286 286 286 286 286 285 285 284 284 284 284 283 282 281 281 280 279 278 277 276 276 275 275 274
294 294 294 294 294 294 294 294 294 294 294 294 294 294 293 293 293 292 292 292 292 292 292 292 292 292 292 292 292 292 291 291 290 290 291 291 292 292 291 291 290 290 290 290 289 288 288 288 288 288 288 288 288 287 287 287 287 286 286 285 285 285 285 285 284 284 284 284 283 283 283 283 282 281 280 280 279 278 277 276 275 275 274 274 273
294 294 294 294 294 294 294 294 294 294 294 294 294 294 293 293 293 292 291 291 292 292 292 292 292 292 291 291 291 291 291 291 291 290 290 291 291 291 291 290 290 290 290 290 289 288 287 287 287 287 287 287 287 287 286 286 286 285 285 284 284 284 283 283 283 283 282 282 282 282 282 282 281 281 280 279 278 277 276 275 275 274 273 273 272
294 294 294 294 294 293 294 294 294 294 294 293 293 293 293 293 293 292 292 292 292 291 291 291 292 291 291 291 291 291 291 291 290 290 291 291 291 291 290 289 289 289 289 289 288 287 287 287 287 287 287 287 286 286 286 285 285 284 284 283 283 283 282 282 282 281 281 281 281 281 281 281 281 280 279 278 277 276 275 274 274 273 273 272 272
293 293 293 293 293 293 293 293 293 293 293 293 293 293 293 293 293 292 292 291 291 291 291 291 291 291 291 291 291 291 290 290 290 290 290 291 291 291 290 289 289 288 288 288 287 287 287 287 287 286 286 286 285 285 285 284 284 284 283 283 282 282 281 281 281 280 279 279 279 280 280 280 280 279 278 278 277 276 275 274 274 273 273 272 271
291 291 291 292 292 292 292 292 293 293 292 292 292 292 292 292 291 291 291 291 291 290 290 290 290 290 291 290 291 290 290 290 290 290 290 290 290 291 290 290 289 288 288 287 287 287 286 286 286 286 285 285 285 284 284 284 283 283 283 282 281 281 281 280 280 279 278 278 278 279 279 279 279 278 278 277 276 275 274 274 273 272 272 271 271
288 288 289 290 290 290 290 290 291 291 291 291 291 291 290 290 290 290 290 290 289 289 289 289 289 290 289 289 289 289 289 289 289 290 290 290 290 290 290 290 289 289 288 287 287 286 285 285 285 285 284 284 284 283 283 283 283 282 282 281 281 280 280 279 279 278 278 278 278 278 278 278 278 278 277 276 275 274 274 273 272 271 271 270 270
285 286 286 287 287 287 287 287 287 288 288 288 289 289 289 288 288 288 288 288 288 288 288 288 289 289 288 288 288 289 289 289 289 289 289 289 289 290 290 289 289 288 288 287 286 285 285 284 284 284 284 283 283 283 283 283 282 282 281 281 280 279 279 278 278 278 277 277 277 277 277 277 277 277 276 275 275 274 273 272 272 271 270 270 270
282 282 283 284 284 283 284 284 284 284 285 285 286 286 286 286 286 287 287 287 287 287 287 287 288 288 288 288 288 288 288 288 288 289 289 289 289 289 289 288 288 288 287 287 286 285 285 284 283 283 283 283 283 283 283 282 282 281 281 280 279 279 279 279 278 278 277 277 277 277 276 276 276 275 275 274 274 273 273 272 271 271 270 270 269
279 279 280 280 281 281 281 281 281 282 282 282 283 283 283 284 284 285 285 285 285 284 285 285 286 287 288 288 288 288 288 288 288 288 288 288 288 288 288 287 287 287 287 286 285 284 284 283 283 283 283 283 283 283 282 282 281 281 280 279 279 279 279 279 278 278 277 277 276 276 276 275 275 275 274 274 273 273 272 271 271 270 270 269 269
277 277 277 278 278 278 278 278 279 279 280 280 280 280 281 281 282 282 282 282 282 283 283 283 285 286 287 287 287 288 287 287 287 287 287 287 287 286 286 286 286 285 285 285 284 284 284 283 283 283 283 283 282 282 281 281 280 280 280 279 279 279 278 278 278 277 277 276 276 275 275 275 274 274 273 273 272 272 271 270 270 270 269 269 269
275 275 275 275 276 276 276 276 277 277 277 277 277 278 278 279 279 279 279 279 279 279 279 279 280 281 282 284 285 285 285 285 285 285 284 284 284 283 283 283 283 284 284 284 284 284 284 283 283 282 282 282 282 281 281 281 280 280 280 279 279 278 278 277 277 276 276 275 275 275 274 274 273 273 273 272 272 271 270 270 270 270 270 269 269
272 272 272 273 273 273 273 274 274 274 274 275 275 275 276 276 276 276 276 275 275 275 275 275 276 276 277 279 280 280 279 279 279 279 279 279 279 279 280 280 281 281 282 282 282 282 282 282 281 281 281 281 281 281 280 280 280 280 280 279 278 278 277 277 276 276 275 275 274 274 273 273 272 272 272 271 271 270 270 270 270 270 270 270 269
270 270 270 271 271 271 271 271 271 272 272 272 272 272 273 273 273 273 273 273 273 273 272 273 273 273 273 274 275 275 275 275 275 275 275 275 275 276 276 277 278 278 278 278 279 279 279 279 279 279 278 278 278 278 278 277 277 277 277 277 277 276 276 275 275 274 274 274 273 273 272 272 271 271 271 271 270 270 270 270 270 270 269 269 269
267 268 268 269 269 269 269 269 269 269 269 269 269 269 270 270 270 270 270 270 270 270 270 270 270 270 270 271 271 271 271 271 271 271 271 272 272 272 273 273 274 274 274 274 275 275 275 275 275 275 275 274 274 274 274 274 274 274 274 274 273 273 273 273 273 272 272 272 272 271 271 271 271 271 270 270 270 270 270 270 270 269 269 269 269
265 265 266 266 266 266 267 267 267 267 267 267 267 267 267 267 267 267 267 267 267 267 267 268 268 268 268 268 268 268 268 268 268 268 269 269 269 270 270 271 271 271 271 271 272 272 272 272 272 272 272 271 271 271 271 271 271 271 271 271 271 271 270 270 270 270 270 270 270 270 270 270 270 270 270 270 270 269 269 269 269 269 269 269 268
263 263 263 264 264 264 264 264 264 265 265 265 265 265 264 265 265 265 265 265 265 265 265 266 266 266 266 266 266 266 266 267 267 267 267 267 267 268 268 268 268 268 269 269 269 269 269 269 269 269 269 269 269 269 269 269 269 270 270 270 269 269 269 269 269 269 269 269 269 269 269 269 269 269 269 269 269 269 269 269 269 268 268 268 268
261 261 261 262 262 262 262 262 262 263 263 263 263 263 263 263 263 263 263 263 263 263 263 264 264 264 264 264 265 265 265 265 265 265 265 265 266 266 266 266 266 267 267 267 266 267 267 267 267 267 267 267 267 267 268 268 268 268 268 268 268 268 268 268 268 268 268 268 268 268 268 268 268 268 268 268 268 268 268 268 268 268 268 268 267
259 259 260 260 260 260 260 260 261 261 261 261 261 261 261 261 261 261 261 261 261 261 262 262 262 263 263 263 263 264 264 264 263 263 264 264 264 264 265 265 265 265 265 265 265 265 265 265 265 265 265 265 265 266 266 266 266 266 266 266 266 266 266 266 267 267 267 267 267 267 267 267 267 267 267 267 267 267 267 268 267 267 267 267 267
258 258 258 258 258 258 259 259 259 259 259 259 259 259 259 259 259 259 260 260 260 260 261 261 261 261 262 262 262 262 262 262 262 262 262 263 263 263 263 263 263 263 263 263 263 263 263 263 263 263 263 264 264 264 264 264 264 264 264 264 265 265 266 266 266 266 266 266 266 266 266 266 266 266 266 267 267 267 267 267 267 267 267 267 266
Wind_Speed
30 30 32 32 32 34 36 39 41 41 40 39 39 40 43 46 46 45 44 45 47 48 49 50 51 53 52 49 48 48 47 46 45 44 42 40 40 39 38 37 36 36 36 35 35 35 34 33 32 31 30 29 29 29 28 26 25 26 26 28 26 19 19 21 16 13 16 17 17 16 13 12 11 8 7 5 4 5 5 6 7 8 8 9 9
30 31 31 31 32 34 35 37 39 40 40 39 38 39 40 42 45 47 46 46 47 49 49 49 50 51 52 50 49 49 48 47 46 45 44 42 40 39 39 38 37 37 36 36 36 35 35 34 33 32 30 31 32 31 29 27 26 27 27 28 27 23 21 24 24 19 17 19 18 15 14 12 10 8 7 5 5 6 6 7 8 9 10 9 7
30 30 30 31 32 32 33 35 37 39 39 38 38 39 40 41 43 46 48 48 49 50 51 51 49 49 50 51 50 49 48 48 47 46 46 45 42 41 40 39 39 39 38 38 37 36 35 35 34 33 32 32 33 31 28 28 27 27 28 28 28 26 23 26 29 25 21 21 18 16 15 13 10 8 6 7 7 8 8 8 8 9 9 7 5
25 26 29 31 31 31 32 34 35 37 40 40 39 38 39 40 42 44 46 47 49 49 50 52 51 49 49 50 50 50 49 49 48 48 47 46 45 43 41 40 40 41 40 39 38 38 37 36 35 34 34 34 33 31 29 28 28 29 29 28 27 26 24 26 29 28 26 22 18 17 16 13 10 8 8 8 9 10 10 9 9 8 7 5 3
22 24 26 28 29 31 33 33 34 37 39 40 41 40 38 38 41 43 44 45 48 48 48 49 51 51 49 49 49 50 50 50 50 50 49 47 46 45 42 41 41 41 42 41 40 39 38 38 37 36 36 35 34 32 31 30 30 30 30 28 27 26 25 24 25 26 27 26 22 19 16 14 12 10 10 11 11 11 11 10 8 7 5 3 1
24 24 25 26 28 31 33 33 35 37 38 39 41 42 40 38 39 42 43 45 47 48 47 47 49 51 51 50 50 50 49 50 51 51 50 48 46 44 42 42 42 42 42 42 41 41 40 40 39 39 38 38 36 34 33 33 33 32 31 30 28 26 26 25 23 22 25 26 25 22 19 16 14 12 12 12 12 11 11 9 6 5 3 1 1
25 25 27 29 29 31 33 35 36 36 36 36 37 39 40 39 39 41 43 44 46 47 47 47 48 50 51 50 50 50 48 49 49 49 49 48 46 44 43 42 42 42 42 42 42 41 41 41 41 41 41 40 39 38 37 36 35 33 33 31 29 28 28 27 25 22 23 24 24 23 21 17 15 14 13 12 11 11 10 7 5 5 5 3 1
26 27 28 29 30 32 35 36 36 35 34 33 34 36 38 38 39 40 41 43 46 46 46 46 46 47 48 48 48 48 47 47 48 48 48 48 47 45 43 43 43 42 41 42 41 41 40 41 42 42 42 41 41 40 40 39 37 35 33 32 31 31 30 29 27 24 24 24 23 22 21 18 16 15 13 13 12 10 8 5 4 4 5 5 3
28 29 28 27 30 32 33 33 34 34 34 33 34 36 37 37 37 38 39 41 42 44 45 45 44 43 43 44 44 45 46 48 49 50 50 49 47 46 44 44 43 42 41 40 40 39 39 41 42 42 42 41 41 41 41 41 39 38 36 34 33 32 31 29 28 27 26 24 22 22 21 19 18 17 15 14 12 10 8 6 5 5 7 7 5
29 29 29 28 30 31 31 31 31 32 35 36 36 35 35 36 36 37 39 39 39 40 42 43 43 42 41 41 42 44 46 48 50 52 51 49 47 45 44 44 43 42 41 39 38 38 39 40 40 40 41 41 41 41 41 41 39 37 37 37 36 35 33 31 29 29 29 26 25 25 22 19 19 18 16 14 12 10 9 8 6 6 9 10 6
29 29 31 31 31 30 30 30 30 32 35 37 37 36 35 36 37 37 37 38 38 39 40 41 41 42 42 42 43 44 46 47 49 50 50 48 47 46 44 44 43 42 41 40 39 39 38 39 39 39 40 41 41 41 41 40 38 36 37 37 36 36 36 34 32 31 29 25 24 25 23 21 19 18 17 15 13 11 10 7 6 6 8 8 5
29 29 31 33 31 30 30 31 31 32 34 36 37 37 36 35 36 37 38 38 38 38 39 41 41 41 42 43 44 44 44 46 48 49 49 48 47 47 45 44 42 42 41 41 41 40 39 39 39 39 41 42 42 41 40 39 39 38 38 37 36 36 35 34 32 31 30 27 24 23 22 21 20 19 19 18 16 13 10 8 8 8 9 11 10
29 28 29 33 32 31 31 32 32 33 34 35 36 35 35 36 37 38 38 38 38 39 39 41 41 42 42 42 43 44 44 45 47 48 48 48 47 47 46 44 43 42 42 42 41 41 40 40 40 40 41 41 41 41 40 39 39 38 38 38 38 37 35 32 29 27 28 27 26 25 23 22 22 22 21 20 19 17 15 13 13 13 15 16 16
30 29 26 31 32 31 33 33 33 34 34 35 35 35 36 38 38 38 38 38 39 40 40 40 41 42 43 43 42 42 43 45 46 47 47 47 47 47 46 45 43 42 42 42 42 42 42 43 43 42 42 42 42 41 40 40 39 38 38 39 40 39 37 33 29 26 26 26 27 26 25 24 23 23 22 22 22 22 21 20 18 18 18 17 16
28 30 25 28 30 30 33 33 33 33 34 34 36 36 36 37 37 37 39 40 41 40 40 41 41 41 42 42 41 40 42 44 45 46 47 46 46 45 45 44 43 42 42 42 42 43 44 45 45 45 44 44 44 44 42 42 41 39 38 39 39 39 37 35 33 31 30 29 28 27 26 25 23 22 23 24 24 22 21 18 17 16 15 15 15
25 28 24 25 28 28 30 31 31 32 33 34 34 35 35 36 37 38 38 39 39 39 39 40 40 39 39 40 40 39 40 42 44 45 46 46 46 44 43 43 42 41 42 42 43 44 44 45 45 45 46 46 46 46 45 43 42 41 40 39 39 39 37 34 33 32 31 30 28 26 25 23 22 23 25 26 24 21 18 15 15 16 14 13 14
22 25 23 22 27 28 27 29 30 31 33 34 34 34 35 35 36 37 36 36 37 38 39 39 39 40 41 41 41 39 39 41 44 45 45 46 45 43 41 40 40 40 41 42 43 43 44 45 45 44 45 46 47 46 45 45 43 42 41 40 39 38 35 33 31 29 28 26 24 22 21 21 21 22 24 25 23 21 21 21 21 20 17 13 12
20 24 23 21 25 28 28 30 30 31 33 35 36 36 36 36 36 37 37 37 37 38 39 38 39 41 42 43 42 40 40 42 45 45 45 46 46 44 42 40 39 39 39 40 41 43 43 44 45 45 45 46 47 46 46 46 46 45 44 42 39 38 36 34 30 27 24 22 20 19 19 20 20 20 22 23 22 22 25 25 23 21 19 15 11
20 23 25 24 23 26 29 30 32 33 34 36 37 38 38 38 38 38 38 37 36 37 38 38 38 39 41 43 43 41 40 42 45 45 45 46 47 45 43 41 38 37 38 38 39 40 42 42 43 45 46 46 47 47 47 48 49 49 47 44 41 40 39 37 34 29 25 23 22 22 21 21 21 21 21 22 22 23 24 23 20 20 19 17 14
21 23 26 27 24 24 28 30 33 35 35 36 37 39 39 38 38 38 37 35 34 35 36 36 36 36 39 41 43 42 41 42 45 47 47 49 49 47 44 41 39 38 38 38 38 38 39 41 42 44 45 45 46 47 47 49 50 49 47 46 43 42 40 37 34 32 29 28 26 25 24 23 23 23 23 23 24 25 24 21 19 19 18 17 16
23 24 24 25 25 24 27 31 33 35 36 37 36 37 38 38 39 39 37 34 33 34 34 34 34 34 37 40 41 42 43 44 47 49 50 51 51 48 45 43 42 41 40 39 39 38 39 40 43 44 44 44 45 46 47 47 46 44 44 45 42 39 38 36 33 31 30 28 27 25 25 25 25 25 26 27 27 27 25 21 19 18 18 17 17
24 24 23 24 24 24 26 30 33 34 35 36 35 35 36 37 38 39 37 35 35 35 34 34 33 33 35 38 40 41 42 44 47 50 51 52 53 51 49 47 47 45 41 37 37 39 42 43 44 44 44 43 43 45 45 45 43 41 40 38 34 32 34 35 33 31 29 27 27 27 27 26 27 28 28 28 28 26 24 21 18 17 17 17 15
25 23 23 23 23 24 27 30 32 33 34 35 35 34 34 35 36 37 37 35 33 33 33 33 32 30 31 34 36 38 39 41 45 49 50 51 53 54 51 48 48 47 44 41 41 42 43 43 43 43 43 41 40 41 43 43 41 39 37 33 28 26 28 31 31 30 28 27 27 28 28 28 29 30 30 28 26 25 22 19 17 16 16 15 14
24 21 22 23 22 23 26 30 32 33 34 35 34 33 34 35 35 36 36 34 31 29 30 30 29 27 27 28 31 34 36 38 42 47 50 51 52 53 50 46 46 46 45 45 46 45 44 44 44 44 43 40 39 40 42 42 40 37 35 32 27 23 24 28 30 29 28 28 29 29 30 31 32 32 30 27 24 22 20 18 16 15 15 16 16
22 20 21 22 22 23 25 29 32 33 34 36 34 33 33 33 31 32 33 32 29 27 27 28 28 26 24 25 28 32 35 36 38 44 48 49 50 51 48 45 44 45 43 42 43 44 44 44 44 43 42 41 39 38 39 40 39 36 33 30 28 25 24 26 29 29 29 29 30 31 32 34 33 31 27 24 22 21 20 18 17 16 16 17 17
21 21 21 21 22 23 24 27 30 33 35 37 36 35 35 34 32 31 31 30 29 27 26 27 26 25 25 26 28 30 33 35 37 40 44 45 46 48 45 41 40 40 37 36 37 38 39 40 41 40 40 39 38 38 39 38 37 35 32 30 29 28 27 28 30 32 32 31 32 33 34 33 31 27 24 23 23 23 21 19 18 17 17 18 18
22 22 21 21 21 21 23 24 26 30 33 35 34 35 36 36 34 32 31 30 27 25 26 26 24 23 23 24 27 29 31 33 34 37 41 41 41 43 43 38 37 36 33 31 32 33 33 35 36 37 37 37 37 37 37 36 35 33 32 30 30 30 30 30 33 34 34 33 33 34 32 30 28 26 25 25 25 24 21 20 18 17 17 16 16
22 21 21 20 18 20 23 25 26 27 30 32 33 32 34 35 33 33 35 35 30 27 26 26 27 28 27 27 28 27 29 33 36 39 42 42 40 42 43 40 38 37 35 32 32 31 31 31 31 31 32 32 32 32 31 31 31 31 31 31 31 31 31 31 32 33 33 31 30 30 29 27 27 28 27 26 25 23 21 20 18 17 16 15 15
21 20 20 18 17 19 22 25 26 26 27 29 32 33 35 37 35 33 36 41 42 39 35 33 35 36 35 35 34 29 27 35 41 43 45 47 48 49 48 45 42 39 37 37 34 31 30 30 30 30 31 31 30 29 29 29 29 29 29 30 30 31 32 32 32 32 32 32 30 29 28 28 28 28 27 26 25 23 21 19 17 16 15 15 16
16 16 16 15 15 18 20 22 25 25 25 26 27 28 32 37 38 35 35 41 46 46 42 40 42 42 39 39 42 41 40 42 44 46 49 52 52 51 49 46 43 39 37 37 35 33 31 29 29 30 31 31 30 29 28 28 27 27 27 27 29 30 32 33 33 33 33 33 32 30 29 30 29 29 28 27 25 22 20 18 17 15 15 16 17
10 10 12 13 16 18 19 21 22 23 24 26 25 23 23 28 34 34 33 35 39 41 38 35 37 43 45 43 43 42 41 43 47 51 52 52 50 47 44 43 43 42 41 39 35 32 30 28 27 28 30 29 29 29 29 28 27 26 26 26 28 31 32 33 34 34 33 33 31 30 31 31 30 30 29 27 24 21 19 17 16 16 17 17 17
8 8 11 14 18 20 19 20 21 21 21 22 23 22 18 17 21 26 27 28 32 35 34 29 31 39 44 45 44 42 38 40 46 50 49 48 48 45 43 43 44 44 44 41 35 30 30 28 27 28 30 29 28 29 29 28 28 27 27 28 29 32 34 35 36 36 34 33 32 32 32 31 31 30 28 26 23 20 19 18 18 17 17 17 18
11 10 11 13 15 17 18 19 20 20 20 19 20 20 17 12 12 15 17 20 26 31 34 33 34 38 39 39 42 46 45 44 45 46 45 46 46 44 42 42 43 44 43 39 32 28 29 29 28 29 30 29 29 29 29 29 29 29 30 31 32 33 35 35 34 33 33 32 32 32 32 31 29 28 26 24 22 21 20 20 19 18 18 18 19
11 11 13 13 13 14 15 16 18 19 20 20 20 20 19 17 15 14 11 11 16 22 28 30 32 36 38 36 36 40 45 47 48 49 47 45 45 45 43 40 40 42 42 38 31 28 28 27 27 28 30 29 29 30 30 30 30 30 31 32 32 31 31 31 31 31 31 31 32 32 31 30 28 27 25 24 22 21 20 21 20 20 20 21 21
7 10 13 15 14 14 14 15 17 17 18 19 19 18 18 18 19 17 13 10 9 13 19 24 27 30 35 35 32 33 38 43 48 53 52 49 47 46 42 37 34 36 36 33 30 30 30 29 28 29 30 30 30 31 31 31 31 33 33 33 33 32 31 31 32 32 32 32 32 32 30 29 29 28 26 24 23 22 22 22 22 22 23 22 23
7 9 12 13 13 13 12 13 14 15 16 17 17 17 17 16 15 15 15 13 10 10 14 17 20 22 27 30 30 30 32 37 43 49 52 54 55 52 43 35 33 33 31 29 29 29 30 31 30 29 30 30 31 32 32 33 33 35 35 35 35 34 33 32 31 31 31 31 31 31 30 30 29 28 26 25 24 24 24 24 23 23 24 23 23
12 12 13 14 14 14 13 12 12 13 14 15 16 15 14 13 13 13 12 11 10 10 11 14 16 18 19 22 26 28 29 33 40 45 49 55 59 56 46 39 35 33 31 30 30 29 29 29 30 30 31 31 32 32 33 33 34 34 34 34 34 33 32 32 31 30 29 30 31 31 31 31 30 29 27 26 26 25 24 24 23 23 24 23 23
19 19 18 18 18 17 16 15 15 15 15 15 15 15 14 13 13 13 12 11 11 11 11 12 14 14 14 16 22 27 29 33 37 41 44 49 50 45 40 38 36 33 32 31 30 29 28 28 29 30 30 31 32 32 33 33 33 33 33 32 31 31 30 30 29 28 28 30 31 32 32 32 31 30 29 28 27 26 25 25 24 23 23 22 22
24 25 26 25 23 20 18 17 17 16 16 15 14 14 13 12 12 11 11 11 11 11 11 12 11 12 14 18 23 28 30 30 31 33 36 39 38 32 30 33 33 32 31 31 30 30 28 28 29 30 30 31 32 32 32 32 32 32 32 31 30 29 29 28 28 28 29 30 31 31 31 31 30 29 29 28 27 26 25 24 24 24 23 23 23
24 26 27 27 25 24 23 21 19 17 16 15 14 14 13 12 11 12 12 11 11 11 11 11 10 12 17 22 26 28 27 24 24 27 30 32 31 27 26 28 29 30 30 30 31 31 30 29 30 31 31 32 32 32 32 32 32 32 31 30 29 30 29 29 29 28 28 29 29 29 29 29 29 28 28 27 26 25 25 24 24 24 23 23 23
29 30 32 30 27 26 25 23 20 20 20 19 18 17 15 15 15 15 14 13 13 13 13 13 12 13 17 21 25 26 24 21 22 24 25 25 25 22 20 21 23 25 26 27 29 29 28 28 30 31 31 31 31 31 32 32 31 30 30 30 30 30 29 29 28 28 27 27 27 27 28 28 27 27 27 26 25 24 24 24 23 23 23 23 22
31 33 36 37 34 31 28 24 23 24 24 22 21 21 20 19 19 19 17 16 16 16 17 17 16 15 14 16 18 19 18 18 20 20 20 21 21 19 18 18 19 21 23 25 27 28 28 28 29 30 31 32 32 32 31 31 30 30 30 30 30 29 29 28 27 26 25 24 25 25 26 26 26 26 25 25 24 23 23 23 22 22 22 22 22
34 33 33 34 34 32 30 30 31 31 30 27 24 23 24 24 23 23 24 25 24 23 23 23 22 22 20 18 18 18 16 16 17 17 17 19 19 18 18 18 18 19 21 22 24 26 28 28 28 28 29 29 29 29 28 28 28 28 29 29 28 28 27 26 24 23 22 22 23 23 24 24 24 24 24 23 23 23 22 22 22 22 22 22 21
43 41 38 37 35 31 29 30 29 28 30 32 30 27 26 26 25 25 27 28 27 27 26 25 24 25 25 24 24 24 24 23 23 22 22 22 21 20 20 19 18 18 19 19 19 21 22 23 23 23 23 23 24 24 25 25 26 26 26 26 26 25 24 22 21 20 20 20 21 22 23 23 23 23 23 23 23 22 22 22 22 22 21 20 20
44 40 38 39 38 32 30 32 31 29 28 29 28 28 28 27 25 25 25 24 24 26 26 25 26 28 29 30 32 33 32 31 31 29 28 27 25 24 22 21 20 19 18 17 16 16 17 18 18 18 18 18 18 19 19 19 19 20 20 20 20 19 18 17 16 15 16 17 19 20 21 21 22 22 22 22 22 22 23 22 21 21 20 20 20
48 42 36 33 30 28 29 32 34 35 36 33 29 27 27 28 30 32 32 30 30 31 32 32 33 35 36 36 37 37 36 36 35 34 32 30 29 27 26 24 23 22 21 19 18 17 16 16 16 15 15 14 13 13 13 12 12 12 11 11 10 10 10 10 10 11 12 13 15 16 18 19 21 21 22 22 22 22 22 22 21 21 21 20 21
53 51 45 40 36 33 31 30 32 35 36 33 30 28 28 32 39 42 40 39 39 39 39 38 38 39 39 39 39 38 38 37 37 35 33 32 30 28 27 25 24 23 22 20 19 18 17 16 15 14 14 13 12 12 11 10 10 10 9 8 8 7 7 7 8 8 9 10 12 13 15 17 19 19 20 20 21 21 22 22 22 22 21 21 21
51 51 49 47 46 42 35 32 35 37 33 30 29 29 31 36 42 42 41 41 42 42 41 40 40 39 39 38 38 38 38 37 36 35 33 31 29 27 25 24 23 22 20 19 18 16 15 14 13 11 11 10 10 9 8 8 8 7 7 7 8 8 8 8 9 10 10 11 12 13 14 15 17 18 19 19 20 20 21 22 22 22 22 22 22
50 48 46 46 47 44 38 36 39 40 37 35 34 34 35 39 41 41 40 41 41 40 39 39 38 38 38 37 36 35 35 34 34 33 31 29 27 25 24 22 21 20 18 17 16 14 12 11 9 8 7 7 6 5 5 4 4 4 5 5 6 7 8 9 10 10 11 12 13 15 16 16 17 17 18 19 20 21 22 23 23 22 22 21 21
46 46 44 43 43 43 42 41 42 41 40 40 39 36 38 41 40 39 40 41 39 38 38 37 36 36 36 35 34 33 32 31 30 29 27 25 24 22 21 20 18 17 16 15 13 11 10 8 7 6 5 4 3 3 2 1 2 2 3 3 4 5 7 8 8 9 10 10 11 13 15 18 20 20 21 21 21 20 21 21 22 22 22 22 21
43 43 43 42 41 40 40 41 40 38 38 39 38 37 38 38 36 36 37 37 36 35 35 34 34 33 33 31 31 30 28 27 26 24 23 22 20 18 17 17 15 14 13 12 10 9 8 6 6 5 4 3 2 1 1 1 2 2 4 5 6 7 7 6 6 6 7 7 7 8 9 12 14 17 19 20 20 20 21 21 21 21 22 21 21
Wind_Direction
228 226 223 221 220 219 213 207 204 203 202 200 199 198 197 197 196 195 194 192 191 191 192 192 193 195 196 197 196 197 198 199 200 201 201 200 201 201 200 200 203 206 205 203 203 204 204 203 202 202 201 198 192 189 188 186 186 186 185 186 185 181 171 160 145 146 163 165 162 163 164 163 159 155 150 143 144 146 135 128 122 120 124 122 118
227 224 222 221 221 219 217 212 207 203 202 202 201 200 199 197 196 195 194 194 193 192 193 194 194 194 195 196 196 196 197 198 199 199 200 199 200 201 200 199 201 202 203 203 202 202 201 201 200 199 198 195 189 187 189 188 188 188 186 187 187 181 174 165 154 151 161 164 163 166 168 165 157 154 153 148 155 159 152 148 144 140 138 133 126
226 222 218 220 221 219 218 216 212 207 203 201 201 201 200 198 196 194 193 193 194 195 195 195 195 195 195 196 196 196 197 197 197 198 199 198 198 199 199 199 200 201 203 203 201 200 199 200 200 198 193 191 188 188 190 191 192 192 188 187 186 181 176 170 163 158 160 164 167 170 168 162 156 157 162 163 168 173 171 166 158 150 144 134 129
229 222 217 217 217 217 218 217 215 211 206 203 202 200 198 197 196 194 193 192 193 195 196 195 195 196 195 195 195 196 196 196 197 198 199 198 198 199 199 200 202 203 204 204 202 200 199 199 200 197 191 189 188 189 191 193 195 194 191 189 188 183 177 173 169 165 163 162 167 171 166 160 161 167 176 178 179 181 179 173 163 156 153 146 137
230 224 220 218 215 215 215 216 216 214 210 207 205 203 200 197 195 194 192 191 192 193 194 194 193 194 195 195 195 195 195 195 196 197 199 198 198 199 200 201 203 204 205 205 203 201 200 201 200 196 192 190 189 190 192 194 195 196 195 192 189 185 180 174 173 172 169 164 164 167 168 165 165 173 182 185 186 184 179 173 164 159 164 167 130
229 222 221 219 216 215 213 212 214 215 212 210 208 206 204 201 197 195 193 192 191 192 193 193 193 194 196 196 196 196 195 195 195 196 197 196 197 199 200 202 203 204 205 205 204 203 202 202 201 197 195 193 192 192 193 193 194 196 196 193 190 187 182 178 176 176 173 168 165 166 171 172 171 174 184 191 190 181 174 172 176 186 204 221 47
238 225 219 217 216 216 213 211 212 213 213 212 209 206 205 205 202 198 196 194 192 192 193 194 194 195 196 197 197 196 195 195 195 196 195 195 195 197 199 200 202 204 204 205 205 205 204 202 201 199 198 197 196 194 192 193 194 196 197 195 191 189 186 182 181 177 171 165 164 167 169 171 174 175 183 192 188 177 172 175 194 216 244 284 309
260 240 226 220 217 216 214 213 212 211 211 212 211 208 206 205 204 200 198 196 195 195 195 195 196 196 197 197 197 196 195 194 195 195 194 194 195 197 198 199 200 201 203 204 205 206 205 203 203 201 200 200 199 197 194 193 194 195 197 197 193 190 188 185 183 181 174 167 165 168 168 169 173 174 178 186 183 176 175 186 217 242 266 285 274
284 257 237 226 222 220 216 213 210 208 207 208 211 210 207 206 204 200 199 198 197 197 196 196 196 196 196 197 196 195 194 195 196 195 194 194 195 196 197 198 199 199 199 201 203 205 205 204 204 202 201 201 201 199 197 196 195 193 194 196 194 192 189 187 184 181 179 174 168 168 166 167 171 172 177 183 179 171 175 199 238 269 285 286 263
298 270 246 232 227 221 217 212 207 204 203 204 208 209 207 205 203 200 200 199 198 196 196 196 196 196 196 196 195 195 196 197 197 197 196 195 195 195 195 196 198 198 197 197 200 203 204 204 204 202 202 201 201 200 198 198 197 195 193 192 192 193 191 189 187 183 181 178 173 170 166 165 172 176 178 179 175 169 176 198 227 264 285 289 267
304 279 253 237 229 220 213 209 204 201 201 202 204 206 206 204 201 199 198 197 197 196 195 195 196 197 197 196 196 197 198 199 199 198 198 197 196 194 193 195 196 197 198 198 199 200 200 202 203 202 201 201 200 200 199 198 197 197 195 194 194 195 193 190 190 188 186 182 178 176 172 168 172 179 177 175 177 178 176 192 229 261 277 287 281
306 287 259 240 229 217 208 204 201 200 200 200 201 203 203 201 198 197 196 196 195 195 195 196 197 197 197 197 197 198 199 200 200 199 198 197 196 194 193 194 195 196 198 200 200 199 198 199 200 201 201 201 201 200 199 199 198 196 196 196 197 199 198 195 192 191 191 188 182 183 184 177 175 180 180 176 177 179 178 194 221 237 247 258 264
309 295 264 239 226 215 206 201 199 199 199 199 199 198 197 197 196 196 195 194 193 194 195 196 196 196 196 195 196 198 200 201 200 199 197 196 194 193 193 194 195 196 198 199 199 199 198 198 198 199 200 201 202 201 200 200 200 198 197 197 199 200 202 202 200 199 202 199 192 191 193 189 186 187 185 178 175 177 184 198 211 220 233 245 253
312 304 271 238 223 214 205 201 199 198 197 197 196 195 194 194 194 193 192 191 192 193 194 194 194 195 195 196 197 198 200 200 199 197 196 194 193 193 194 196 197 198 199 199 199 200 200 199 198 198 199 200 202 202 201 199 199 199 199 200 201 201 201 203 206 209 212 210 204 200 197 196 194 191 185 180 180 183 189 197 204 215 231 246 256
313 312 283 242 223 213 206 202 199 196 194 193 194 195 195 192 191 190 190 190 192 192 192 193 195 195 195 195 196 198 199 199 197 196 194 193 193 193 194 195 195 197 199 200 201 203 202 201 201 200 199 200 202 203 202 200 198 197 198 200 202 201 202 204 206 208 209 209 209 205 199 196 192 186 182 183 186 190 194 198 202 214 233 247 258
313 315 293 252 229 217 208 203 198 194 191 190 193 196 195 192 190 190 190 190 191 191 192 193 194 193 194 195 195 197 199 198 196 196 195 193 192 192 192 192 193 195 197 199 201 203 203 202 202 201 201 201 202 203 203 200 198 196 195 196 198 199 201 204 207 207 206 205 205 202 198 194 188 182 183 186 190 190 188 193 200 209 222 237 256
311 315 301 262 235 223 212 205 201 194 189 188 191 194 195 193 192 190 189 188 189 191 191 192 193 193 194 194 195 195 196 196 196 196 195 193 191 189 189 190 191 193 196 198 200 202 203 204 203 203 202 202 201 202 202 199 196 193 192 190 191 194 197 200 203 205 205 203 200 198 197 194 189 186 187 191 192 185 183 194 201 202 207 220 245
306 311 307 279 246 228 215 207 203 196 191 189 190 191 193 194 192 191 191 190 190 190 189 189 192 194 195 195 195 195 195 195 196 195 194 193 190 188 188 188 190 192 195 197 200 201 204 206 206 205 204 204 202 200 200 199 195 191 189 185 185 190 193 193 193 195 198 200 199 199 199 198 196 195 196 197 194 189 192 200 200 195 199 206 218
299 303 304 295 266 236 219 208 203 199 195 193 191 190 191 192 192 193 194 193 191 190 188 189 191 194 195 196 196 196 195 194 194 194 194 193 192 190 189 188 188 190 192 194 197 201 204 205 207 207 207 206 202 200 200 199 195 191 188 184 185 190 192 190 189 188 189 193 198 202 203 202 202 203 204 202 200 201 206 208 202 195 198 202 204
291 294 295 295 281 249 225 211 204 200 197 196 193 191 190 189 189 190 193 194 191 188 188 189 190 192 194 196 196 197 196 194 194 195 194 194 194 192 189 188 187 188 190 192 193 197 201 203 205 207 207 206 202 200 201 201 197 192 189 187 189 192 191 188 189 189 188 191 196 200 202 203 204 206 207 206 204 207 210 211 209 206 205 205 204
283 286 284 285 281 258 231 216 209 203 199 196 194 192 190 188 187 187 189 190 189 187 187 188 189 192 194 196 197 198 198 196 195 195 195 195 194 192 190 190 190 188 188 191 192 194 197 200 202 204 205 205 202 200 201 202 199 196 193 193 195 195 191 188 189 189 190 193 195 198 201 206 209 209 209 208 207 209 211 212 213 214 215 213 210
275 279 275 273 273 258 234 219 211 206 200 196 193 191 190 188 187 186 186 187 187 186 186 186 187 190 194 196 198 199 199 199 196 194 194 194 194 194 194 194 193 190 187 188 191 194 197 199 200 201 202 203 201 200 200 201 202 202 199 197 198 195 191 189 187 189 194 196 196 199 205 208 208 208 209 211 210 209 211 213 217 220 223 224 222
269 271 267 264 262 253 234 219 210 204 199 195 192 189 188 187 186 186 186 187 187 186 185 185 186 188 191 196 198 198 198 199 197 195 194 194 195 196 197 196 195 192 189 189 192 195 197 198 198 199 200 200 200 200 200 200 203 204 202 199 197 194 190 187 187 190 196 197 199 203 207 206 205 206 209 211 210 208 210 216 223 226 227 228 231
263 263 261 257 254 246 231 217 207 201 197 194 190 189 187 185 185 186 186 186 186 186 185 183 184 186 188 191 194 196 197 198 198 196 194 195 195 196 196 197 195 194 193 194 195 195 195 197 198 199 199 199 199 201 201 201 203 204 202 200 198 193 188 187 190 193 196 197 201 206 208 206 206 208 211 211 209 208 212 219 224 226 227 229 232
259 258 256 252 247 239 227 213 203 197 194 191 189 188 186 184 184 186 186 187 188 188 185 183 184 185 186 188 190 192 193 194 196 197 195 195 195 195 195 196 196 195 195 196 195 195 196 197 197 198 198 197 197 198 199 200 203 204 202 200 198 195 192 192 194 195 196 199 204 208 210 210 209 211 214 213 210 211 214 219 222 225 229 233 236
259 259 255 250 243 233 221 209 199 194 192 191 190 189 186 185 185 186 186 189 191 190 187 184 184 184 186 188 187 187 189 190 193 194 194 194 195 194 193 195 196 195 196 197 195 193 193 194 195 194 194 194 193 193 195 199 201 203 202 200 198 198 198 197 196 196 199 204 208 211 214 213 212 213 214 212 211 213 215 219 224 229 235 239 243
260 260 255 249 239 225 212 203 195 191 190 190 191 191 189 188 187 186 187 188 191 192 189 185 183 184 184 184 182 182 185 188 189 190 189 190 191 190 190 191 192 192 192 192 190 187 188 189 190 190 190 190 191 192 194 196 198 199 199 199 200 202 205 204 202 202 205 209 212 215 217 215 212 212 212 211 211 214 217 222 228 234 239 244 247
258 256 253 247 232 215 205 198 192 190 189 190 191 191 191 191 191 192 191 187 186 190 191 187 186 185 181 178 179 180 184 188 189 188 185 184 184 185 187 189 189 188 188 185 182 181 182 180 180 181 181 182 185 189 191 192 194 195 196 198 201 205 208 209 208 209 212 215 217 218 217 214 212 212 211 210 212 214 219 225 232 237 241 243 246
254 251 250 243 222 205 197 193 191 189 188 191 193 194 193 193 194 196 197 193 191 192 192 191 190 187 183 181 179 179 186 192 191 187 185 185 185 186 187 188 187 186 185 182 176 171 170 170 170 172 174 177 180 183 186 189 191 193 196 199 202 206 208 209 210 213 217 219 221 220 217 213 212 211 210 210 213 216 222 228 233 238 240 242 246
253 245 241 232 211 196 189 187 189 189 187 189 193 196 197 198 198 198 199 200 198 197 197 196 192 187 186 188 188 188 191 191 189 188 188 189 190 189 188 187 185 181 180 178 173 167 167 168 170 171 173 176 178 181 184 186 187 190 195 199 204 208 210 212 214 217 220 222 223 222 219 214 210 208 209 211 213 216 221 229 235 239 240 242 247
252 237 227 214 200 190 183 183 185 187 187 188 188 189 193 199 202 203 203 203 202 202 205 205 199 191 189 191 193 195 195 190 188 190 191 189 189 188 186 184 183 181 178 175 171 170 171 171 172 174 175 176 179 182 184 185 187 191 195 201 207 210 211 214 217 219 222 225 225 224 222 218 213 210 210 211 213 215 219 226 232 236 239 242 247
238 222 211 200 190 185 181 179 180 184 186 187 188 187 185 189 199 204 206 206 207 207 207 207 205 201 197 193 191 192 193 191 190 191 190 188 186 185 183 182 182 182 180 177 174 174 175 173 172 174 176 178 181 183 184 186 190 194 197 203 208 211 213 217 219 222 224 226 226 225 224 221 217 214 212 212 213 215 218 223 228 232 236 240 244
227 208 197 188 182 181 179 175 176 179 182 184 186 187 187 186 189 192 196 202 206 208 208 208 206 203 202 201 197 192 190 190 190 188 187 186 185 181 179 180 181 180 179 178 177 177 177 176 175 176 178 180 182 183 186 190 194 197 202 207 210 213 216 219 221 224 227 229 229 228 226 222 218 214 213 214 216 217 219 224 228 230 233 236 240
221 197 182 174 170 172 175 175 174 176 180 183 184 186 188 190 187 181 176 180 190 198 204 207 206 202 201 204 205 199 193 188 186 186 185 184 182 178 173 173 178 181 183 183 181 179 177 177 177 179 181 183 183 184 187 191 195 199 204 209 213 215 218 220 223 227 230 231 231 229 226 222 218 215 214 213 215 218 222 224 226 228 229 233 238
201 179 169 165 162 162 166 170 172 172 174 178 181 185 187 187 187 186 184 179 177 182 190 196 200 201 200 201 204 205 199 190 184 182 181 178 176 172 165 162 170 180 186 188 185 181 180 181 181 183 185 185 185 186 189 191 196 201 206 210 214 217 220 222 225 228 231 231 230 228 226 223 221 219 217 215 214 218 221 223 226 229 232 234 237
123 133 142 143 142 146 150 158 164 166 168 172 175 177 179 180 180 180 180 180 178 173 174 179 185 191 197 200 202 203 200 192 184 180 177 175 173 170 167 167 173 180 185 190 188 184 183 185 185 185 187 186 187 189 191 194 199 204 208 212 215 217 220 222 225 228 230 230 230 229 226 224 222 220 218 219 220 223 226 228 231 233 234 235 237
87 96 107 114 118 124 126 130 140 146 148 153 155 154 155 160 160 156 153 152 150 148 150 154 159 167 181 192 195 196 194 188 181 177 175 174 174 174 175 177 178 180 184 188 187 184 184 186 186 186 187 188 189 191 193 197 202 206 210 214 217 219 222 225 227 229 230 229 228 227 224 223 223 221 220 221 223 225 228 231 232 234 235 236 238
68 76 87 97 101 105 106 107 114 121 124 129 135 136 134 136 139 139 137 133 129 127 131 143 153 156 158 165 174 177 176 174 172 171 172 175 178 179 178 179 180 182 185 187 186 184 183 184 186 187 188 189 190 193 195 199 203 207 211 215 219 222 224 226 227 228 229 228 226 224 222 222 222 222 222 224 225 227 230 231 231 232 233 233 233
59 67 77 84 84 86 89 92 96 102 106 109 117 123 124 125 128 126 124 125 126 126 129 138 148 151 148 150 155 159 160 163 167 169 172 178 184 186 183 180 182 184 184 184 184 183 182 183 185 187 188 190 192 195 199 202 206 210 213 215 217 218 219 220 222 223 224 224 224 223 222 222 223 224 225 227 229 230 232 232 232 233 233 232 234
52 59 67 72 74 75 76 77 78 81 87 91 98 103 104 104 110 116 116 116 116 118 124 129 134 143 150 154 157 158 160 165 172 174 175 181 188 191 188 184 184 183 182 181 182 183 184 184 185 186 189 193 196 200 204 207 210 212 213 213 214 215 215 216 219 220 221 223 223 223 224 224 225 227 228 230 233 235 235 236 237 237 236 237 238
55 58 61 65 70 70 68 67 67 69 73 76 78 81 84 87 92 96 99 99 98 99 100 101 112 135 153 160 163 165 167 169 172 175 178 182 185 188 187 186 183 181 179 178 179 181 182 183 185 188 191 196 200 204 206 209 210 210 211 212 212 213 213 215 217 220 222 224 225 227 228 228 229 230 231 233 236 238 239 239 239 238 238 239 239
53 56 57 61 65 66 64 63 65 68 69 69 69 71 75 78 81 83 82 82 84 88 86 82 88 104 125 145 157 161 162 163 166 170 173 175 176 176 176 176 176 175 174 174 176 179 182 185 189 192 195 199 202 204 205 207 208 209 209 209 209 210 211 214 216 220 223 226 229 230 231 232 232 233 235 237 238 238 238 237 237 236 236 237 236
55 54 53 56 59 60 62 64 67 68 69 69 69 71 73 74 75 77 79 78 77 78 76 73 75 79 86 103 123 127 123 127 137 141 142 145 147 147 149 152 157 161 165 170 175 181 186 189 192 195 198 201 204 206 207 208 209 208 208 209 209 210 211 213 216 220 224 228 231 232 233 233 234 235 237 237 236 236 235 234 233 233 233 234 234
58 55 53 55 56 55 56 59 61 64 67 68 68 68 70 73 74 75 76 75 74 73 72 71 72 74 76 84 96 98 94 96 103 106 109 114 117 120 124 130 137 145 152 159 168 177 183 185 186 188 192 196 200 203 205 208 209 210 210 210 209 209 211 214 219 225 229 231 232 233 233 234 234 235 235 234 233 232 232 232 232 232 232 232 233
54 51 52 56 55 51 51 55 58 59 61 63 62 61 63 66 67 68 70 70 70 71 71 71 74 76 77 80 87 89 89 90 92 92 94 97 99 101 105 111 117 122 127 134 143 154 163 168 171 173 176 181 187 192 196 200 203 205 208 209 209 211 216 222 228 232 233 234 234 234 234 235 235 234 234 233 232 233 233 233 233 232 231 232 234
55 52 51 51 47 42 45 52 58 61 61 61 60 57 57 59 63 66 67 68 68 70 70 72 75 79 79 80 83 84 85 86 86 85 87 89 90 92 96 99 102 104 106 109 115 122 129 136 142 146 149 153 159 165 169 173 177 181 188 194 199 206 215 221 226 230 232 234 238 239 239 240 239 238 238 237 236 235 236 236 235 234 233 234 236
57 56 55 54 53 50 47 48 53 57 57 56 56 55 55 61 66 68 68 69 70 71 71 71 73 75 76 77 78 79 81 83 83 83 84 85 87 89 91 92 93 94 96 98 102 106 110 115 120 125 130 134 139 143 147 151 157 162 168 175 180 189 200 207 216 225 228 232 239 243 244 245 245 243 242 241 239 238 239 238 237 237 237 238 241
55 56 56 57 58 56 50 48 54 57 54 52 54 55 57 63 66 67 67 68 69 70 70 71 72 73 73 74 77 79 81 82 82 82 83 84 85 86 88 88 89 90 91 92 94 97 100 105 110 116 123 128 133 138 142 149 158 167 177 187 192 198 204 208 216 225 229 233 239 242 246 250 251 249 247 245 243 242 242 242 241 241 241 241 243
53 55 55 55 57 57 55 54 58 60 59 60 60 58 60 63 64 64 66 67 66 67 69 70 72 74 75 75 77 78 80 81 81 81 82 82 82 83 84 85 86 87 87 87 87 88 91 96 100 106 112 118 124 132 141 156 175 188 202 214 220 224 226 228 233 239 243 247 251 252 252 254 254 254 252 251 248 247 246 244 242 242 240 239 241
52 54 55 55 55 57 58 58 60 60 61 63 64 62 63 64 64 64 66 66 65 66 68 69 71 74 76 77 77 78 78 79 79 80 80 80 80 80 80 80 80 80 81 81 81 81 82 84 85 88 91 95 100 111 132 179 203 206 214 218 218 224 229 232 237 243 246 251 258 259 256 255 253 251 251 251 249 247 246 244 244 243 241 240 240
51 53 54 55 55 55 55 57 57 57 58 61 63 63 65 65 64 64 67 68 68 69 70 72 73 75 76 77 78 78 78 78 79 78 78 77 76 76 76 75 75 75 75 76 76 75 72 72 73 73 74 77 85 99 138 179 176 185 206 207 202 201 202 200 200 207 218 231 244 248 249 250 250 249 249 250 250 248 247 246 245 243 242 240 239